Location: Maiden
(35.5760°N, 81.2120°W)
Time: 02:19:09
(UTC-04:00)

IRIDIUM 114 - Pass Details

Date: 02 August 2020
Orbit: 776 x 779 km, 86.4° (Epoch: 11 August)

Event Time Altitude Azimuth Distance (km) Brightness Sun altitude
Exits shadow 22:16:31 28° 175° (S) 1,422 5.3 -19.8°
Maximum altitude 22:19:20 81° 90° (E) 790 4.2 -20.2°
Drops below altitude 10° 22:24:33 10° 4° (N) 2,332 7.3 -21.0°
Sets 22:26:54 0° 4° (N) 3,263 8.1 -21.4°
